MOLNIYA 1-29

Last updated on Oct. 28, 2020, 5:53 a.m. UTC

1 07780U 75036A   20301.03498811 -.00000030  00000-0 -23176-2 0  9999
2 07780  63.1087 291.8312 7305817 289.0072   9.4770  2.00614327333645
UTC
Height (km)
Latitude
Longitude
Inclination
Orbital Period
UTC large
Height (km)
Speed (km/s)
/
Latitude / Longitude
Inclination (degrees)
Orbital Period (minutes)
Azimuth
Elevation
Range (km)
Doppler Factor
iOS Compass Heading
iOS Angle

Next 30 passes for location: Hong Kong

Rise time Rise Azimuth (degrees) Set time Set Azimuth (degrees) Duration Max altitude (degrees)

No matching passes for this satellites